Location: Felsheim
(48.7267°N, 10.7386°E)
Time: 12:47:52
(UTC+00:00)

COSMOS 2406 - Pass Details

Date: 09 April 2020
Orbit: 842 x 865 km, 71.0° (Epoch: 25 May)

Event Time Altitude Azimuth Distance (km) Brightness Sun altitude
Exits shadow 20:55:04 25° 214° (SW) 1,653 4.5 -25.2°
Maximum altitude 20:58:31 79° 298° (WNW) 870 3.2 -25.5°
Drops below altitude 10° 21:04:15 10° 26° (NNE) 2,494 5.9 -26.1°
Sets 21:06:44 0° 28° (NNE) 3,437 6.7 -26.3°
